Location: Newark
(52.8300°N, 8.0000°E)
Time: 15:54:44
(UTC+00:00)

STARLINK-1107 - Pass Details

Date: 01 February 2020
Orbit: 345 x 354 km, 53.0° (Epoch: 21 February)

Event Time Altitude Azimuth Distance (km) Brightness Sun altitude
Rises 17:22:52 0° 283° (WNW) 2,184 7.9 -10.8°
Reaches altitude 10° 17:25:10 10° 267° (W) 1,336 7.1 -11.1°
Maximum altitude 17:27:32 21° 214° (SW) 858 5.2 -11.5°
Drops below altitude 10° 17:29:53 10° 161° (SSE) 1,330 5.5 -11.8°
Enters shadow 17:32:09 - 145° (SE) 2,168 6.4 -12.2°
